This is the latest recevied weather packets stored in our database for station/object N3WGC-14. If no packets are shown the sender has not sent any weather packets the latest 1 day(s).
| Time | Temp. | Humidity | Pressure | Rain* | Wind** | Luminosity | Snow |
|---|---|---|---|---|---|---|---|
| 1778017446 | 26.67° C | 50% | 1009.6 hPa | 0 mm | 0.89 m/s, 90° | - | - |
| 1778017146 | 26.67° C | 49% | 1009.6 hPa | 0 mm | 0.89 m/s, 93° | - | - |
| 1778016846 | 27.22° C | 50% | 1009.6 hPa | 0 mm | 0.89 m/s, 327° | - | - |
| 1778016546 | 27.22° C | 50% | 1009.6 hPa | 0 mm | 0.89 m/s, 106° | - | - |
| 1778016246 | 27.22° C | 50% | 1009.5 hPa | 0 mm | 1.34 m/s, 103° | - | - |
| 1778015946 | 27.22° C | 49% | 1009.5 hPa | 0 mm | 0.89 m/s, 162° | - | - |
| 1778015646 | 27.78° C | 50% | 1009.6 hPa | 0 mm | 0.89 m/s, 243° | - | - |
| 1778015345 | 27.22° C | 51% | 1009.5 hPa | 0 mm | 0.89 m/s, 58° | - | - |
| 1778015045 | 27.22° C | 50% | 1009.5 hPa | 0 mm | 0.89 m/s, 94° | - | - |
| 1778014745 | 27.22° C | 51% | 1009.5 hPa | 0 mm | 1.34 m/s, 94° | - | - |
| 1778014445 | 27.78° C | 51% | 1009.5 hPa | 0 mm | 0.89 m/s, 118° | - | - |
| 1778014145 | 27.78° C | 50% | 1009.5 hPa | 0 mm | 2.68 m/s, 225° | - | - |
| 1778013845 | 27.78° C | 51% | 1009.5 hPa | 0 mm | 1.34 m/s, 259° | - | - |
| 1778013545 | 27.22° C | 52% | 1009.5 hPa | 0 mm | 0.89 m/s, 116° | - | - |
| 1778013244 | 27.22° C | 52% | 1009.5 hPa | 0 mm | 0.89 m/s, 212° | - | - |
| 1778012944 | 27.22° C | 51% | 1009.5 hPa | 0 mm | 2.24 m/s, 114° | - | - |
| 1778012644 | 27.22° C | 52% | 1009.6 hPa | 0 mm | 1.34 m/s, 116° | - | - |
| 1778012344 | 27.22° C | 51% | 1009.6 hPa | 0 mm | 2.24 m/s, 113° | - | - |
| 1778012044 | 27.22° C | 52% | 1009.7 hPa | 0 mm | 2.24 m/s, 172° | - | - |
| 1778011744 | 27.22° C | 52% | 1009.6 hPa | 0 mm | 1.34 m/s, 114° | - | - |
| 1778011443 | 27.22° C | 51% | 1009.7 hPa | 0 mm | 2.68 m/s, 194° | - | - |
| 1778011143 | 27.22° C | 54% | 1009.7 hPa | 0 mm | 1.34 m/s, 180° | - | - |
| 1778010843 | 27.22° C | 53% | 1009.8 hPa | 0 mm | 0.89 m/s, 103° | - | - |
| 1778010543 | 27.22° C | 53% | 1010 hPa | 0 mm | 1.34 m/s, 248° | - | - |
| 1778010243 | 27.22° C | 52% | 1010 hPa | 0 mm | 1.34 m/s, 89° | - | - |
* Rain latest hour (hover to see other rain measurements)
** Current wind speed in m/s (hover to see current wind gust speed)